SCP
0 0 0 0 0 0 0 0 0 0 0 0 0 0 0 0 0 0 0 0 0 0
0 0 0 0 0 0 0 0 0 0 0 0 0 0 0 0 0 0 0 0 0 0
0 0 0 0 0 0 0 0 0 0 0 0 0 0 0 0 0 0 0 0 0 0
0 0 0 0 0 0 0 0 0 0 0 0 0 0 0 0 0 0 0 0 0 0
0 0 0 0 0 0 0 0 0 0 0 0 0 0 0 0 0 0 0 0 0 0
0 0 0 0 0 0 0 0 0 0 0 0 0 0 0 0 0 0 0 0 0 0
0 0 0 0 0 0 0 0 0 0 0 0 0 0 0 0 0 0 0 0 0 0
0 0 0 0 0 0 0 0 0 0 0 0 0 0 0 0 0 0 0 0 0 0
0 0 0 0 0 0 0 0 0 0 0 0 0 0 0 0 0 0 0 0 0 0
0 0 0 0 0 0 0 0 0 0 0 0 0 0 0 0 0 0 0 0 0 0
0 0 0 0 0 0 0 0 0 0 0 0 0 0 0 0 0 0 0 0 0 0
0 0 0 0 0 0 0 0 0 0 0 0 0 0 0 0 0 0 0 0 0 0
0 0 0 0 0 0 0 0 0 0 0 0 0 0 0 0 0 0 0 0 0 0
0 0 0 0 0 0 0 0 0 0 0 0 0 0 0 0 0 0 0 0 0 0
Wind_Speed_500mb
58 45 38 37 38 38 36 36 39 36 40 41 41 41 39 36 30 31 36 39 41 37
49 55 33 36 36 34 33 34 36 34 35 35 31 31 34 35 37 38 37 35 33 30
39 39 33 32 33 31 28 27 27 25 26 29 30 29 20 16 16 17 17 17 18 21
27 28 27 26 26 24 21 21 22 20 15 13 12 8 6 7 9 11 13 15 17 19
28 29 27 25 24 22 20 17 14 10 9 5 2 3 6 8 10 12 14 17 19 22
27 28 27 25 23 20 16 14 11 8 6 6 5 6 8 10 12 16 19 21 24 27
32 29 27 26 25 21 19 15 11 8 5 4 7 9 12 14 17 20 23 26 28 31
34 33 31 28 26 22 17 12 7 3 5 8 12 14 16 19 21 23 26 30 33 35
38 36 33 28 24 19 13 7 1 5 10 14 16 16 19 22 25 28 31 35 38 42
39 35 32 28 22 16 10 3 3 8 11 15 17 17 19 23 28 33 37 40 42 44
39 35 30 24 17 12 6 1 7 10 12 14 17 21 25 29 32 35 39 44 48 53
38 32 27 21 15 8 9 14 11 7 9 13 18 23 28 32 36 39 43 48 51 55
37 29 24 13 5 0 4 6 7 4 10 15 19 25 31 37 41 44 47 50 54 55
36 23 17 14 6 7 15 9 5 7 10 15 20 26 33 41 47 52 54 56 58 59
Wind_Direction_500mb
229 224 235 238 239 241 243 246 248 236 252 256 265 273 272 270 266 270 276 280 283 282
223 227 236 231 234 236 233 244 246 251 258 264 265 269 272 279 284 286 286 283 283 284
209 216 216 218 224 230 229 235 246 251 255 260 266 267 273 280 289 295 300 304 304 302
187 188 192 204 211 217 216 227 235 239 239 244 246 256 284 303 312 317 322 323 326 324
180 180 185 188 199 208 204 196 194 201 211 202 148 21 12 2 359 350 339 334 331 324
185 183 182 180 177 179 179 173 167 156 130 104 71 37 8 355 343 335 327 325 323 320
177 174 172 168 164 160 156 150 137 123 91 40 9 357 347 338 335 328 324 325 324 321
174 168 163 160 157 154 145 138 125 67 353 341 338 334 335 334 333 330 329 329 327 326
175 170 163 158 153 147 148 138 94 333 334 335 333 338 338 335 334 336 335 332 330 327
173 168 161 159 157 159 159 155 321 326 334 328 328 335 341 339 335 336 337 337 337 336
173 169 164 162 164 160 149 181 349 328 326 328 335 338 336 337 339 343 343 342 340 337
173 172 166 163 152 121 20 318 282 309 322 325 330 332 337 341 342 342 343 340 338 334
170 165 151 144 121 163 210 254 249 291 312 325 336 339 339 338 338 336 337 340 339 337
159 160 157 135 125 250 239 219 262 298 320 328 332 334 336 337 341 342 345 343 340 338
Wind_Speed_850mb
58 45 38 37 38 38 36 36 39 36 40 41 41 41 39 36 30 31 36 39 41 37
49 55 33 36 36 34 33 34 36 34 35 35 31 31 34 35 37 38 37 35 33 30
39 39 33 32 33 31 28 27 27 25 26 29 30 29 20 16 16 17 17 17 18 21
27 28 27 26 26 24 21 21 22 20 15 13 12 8 6 7 9 11 13 15 17 19
28 29 27 25 24 22 20 17 14 10 9 5 2 3 6 8 10 12 14 17 19 22
27 28 27 25 23 20 16 14 11 8 6 6 5 6 8 10 12 16 19 21 24 27
32 29 27 26 25 21 19 15 11 8 5 4 7 9 12 14 17 20 23 26 28 31
34 33 31 28 26 22 17 12 7 3 5 8 12 14 16 19 21 23 26 30 33 35
38 36 33 28 24 19 13 7 1 5 10 14 16 16 19 22 25 28 31 35 38 42
39 35 32 28 22 16 10 3 3 8 11 15 17 17 19 23 28 33 37 40 42 44
39 35 30 24 17 12 6 1 7 10 12 14 17 21 25 29 32 35 39 44 48 53
38 32 27 21 15 8 9 14 11 7 9 13 18 23 28 32 36 39 43 48 51 55
37 29 24 13 5 0 4 6 7 4 10 15 19 25 31 37 41 44 47 50 54 55
36 23 17 14 6 7 15 9 5 7 10 15 20 26 33 41 47 52 54 56 58 59
Wind_Direction_850mb
229 224 235 238 239 241 243 246 248 236 252 256 265 273 272 270 266 270 276 280 283 282
223 227 236 231 234 236 233 244 246 251 258 264 265 269 272 279 284 286 286 283 283 284
209 216 216 218 224 230 229 235 246 251 255 260 266 267 273 280 289 295 300 304 304 302
187 188 192 204 211 217 216 227 235 239 239 244 246 256 284 303 312 317 322 323 326 324
180 180 185 188 199 208 204 196 194 201 211 202 148 21 12 2 359 350 339 334 331 324
185 183 182 180 177 179 179 173 167 156 130 104 71 37 8 355 343 335 327 325 323 320
177 174 172 168 164 160 156 150 137 123 91 40 9 357 347 338 335 328 324 325 324 321
174 168 163 160 157 154 145 138 125 67 353 341 338 334 335 334 333 330 329 329 327 326
175 170 163 158 153 147 148 138 94 333 334 335 333 338 338 335 334 336 335 332 330 327
173 168 161 159 157 159 159 155 321 326 334 328 328 335 341 339 335 336 337 337 337 336
173 169 164 162 164 160 149 181 349 328 326 328 335 338 336 337 339 343 343 342 340 337
173 172 166 163 152 121 20 318 282 309 322 325 330 332 337 341 342 342 343 340 338 334
170 165 151 144 121 163 210 254 249 291 312 325 336 339 339 338 338 336 337 340 339 337
159 160 157 135 125 250 239 219 262 298 320 328 332 334 336 337 341 342 345 343 340 338